Wind_Speed
8 9 9 8 9 10 11 11 12 10 9 8 8 7 6 6 6 7 8 8 9 11 12 13 15 16 18 19 20 21 22 23 23 24 26 27 27 29 30 32 32 32 30 29 27 26 25 25 27 28 28 26 26 26 26 26 27 26 26 26 26 26 26 25 26 27 28 29 29 29 29 29 30 29 29 29 29 29 29 31 33 36 38 40 40
7 7 7 7 8 9 10 11 11 10 8 8 8 7 6 6 6 8 9 9 9 10 12 14 16 18 19 20 21 22 23 24 24 26 27 29 29 29 31 33 34 33 32 30 28 26 25 26 28 29 29 28 26 26 26 27 27 27 27 27 28 28 27 27 27 27 29 29 29 29 29 29 30 30 30 29 29 29 30 32 35 37 38 39 40
7 7 6 7 8 9 10 11 10 9 8 8 8 7 7 7 7 8 8 9 10 11 13 15 17 19 20 21 22 23 24 26 27 28 30 31 30 30 32 33 34 34 32 31 28 26 26 27 29 30 30 29 28 27 27 28 29 29 28 28 29 30 29 29 29 29 29 30 30 29 29 29 30 30 30 30 30 29 31 33 36 38 39 39 40
7 7 6 7 8 8 10 11 10 9 9 8 8 7 8 8 8 8 8 9 11 13 15 16 18 19 21 22 24 26 27 29 30 32 32 33 33 32 32 33 35 35 33 31 30 28 27 28 30 31 31 30 30 29 29 29 29 30 30 30 30 30 31 31 31 30 29 30 30 30 30 30 30 30 30 30 30 31 33 36 38 40 41 41 41
9 8 7 7 7 9 10 10 10 9 9 9 8 8 9 9 9 9 9 9 11 14 15 16 17 19 21 23 26 28 30 31 33 34 34 34 34 33 32 33 35 36 35 33 31 30 29 29 30 31 32 32 32 32 31 30 30 31 32 32 32 32 32 32 32 31 30 30 30 30 31 31 31 31 30 30 30 32 36 39 40 42 42 43 42
10 10 10 8 8 10 11 11 10 10 10 10 9 8 8 8 9 10 10 10 10 12 14 16 17 19 21 24 26 28 31 33 35 36 35 36 36 34 33 34 35 38 38 35 32 31 30 29 30 31 33 33 34 33 33 32 32 32 33 34 35 35 35 34 33 32 31 30 31 31 32 33 32 31 31 30 30 33 37 40 41 42 42 42 43
12 12 12 10 10 11 12 12 12 11 11 11 9 8 8 8 10 11 11 9 9 11 14 17 19 21 23 25 27 29 32 34 36 37 36 37 38 36 35 35 36 39 40 39 36 33 31 30 30 32 34 35 35 34 34 34 34 34 35 36 37 37 36 35 34 33 32 33 33 33 34 34 33 32 32 30 30 33 37 39 41 43 44 43 42
14 13 13 12 11 12 13 14 13 12 12 11 10 9 9 9 10 10 9 10 11 14 16 19 22 24 26 28 29 30 33 36 38 39 39 39 39 38 38 38 38 40 42 42 41 37 34 33 33 33 35 37 36 35 34 35 35 36 37 37 37 37 36 35 34 34 34 35 36 36 36 36 36 36 34 32 32 36 40 42 42 44 45 44 44
16 14 14 13 12 13 16 16 14 14 13 11 11 12 11 10 9 8 10 13 16 18 19 21 24 26 29 31 32 33 35 38 40 42 42 42 42 41 41 42 40 41 43 43 42 41 38 35 34 35 36 38 38 36 35 36 38 39 39 38 37 37 36 36 35 35 36 37 38 39 39 39 40 40 39 36 36 39 45 48 46 45 45 45 45
18 16 14 14 15 16 18 18 16 15 14 13 13 14 13 11 10 10 12 15 18 20 21 22 25 27 29 31 33 34 37 39 41 43 45 47 47 46 45 44 42 41 43 41 39 40 38 35 35 36 38 39 40 38 38 39 40 40 40 40 40 39 38 37 37 37 37 38 39 40 41 41 43 43 43 41 40 43 49 52 50 47 45 45 45
20 18 15 15 17 19 19 19 19 17 15 15 16 15 14 13 13 14 14 16 19 21 21 23 25 27 27 29 32 35 38 41 42 44 47 49 49 47 44 42 41 42 42 39 37 37 36 34 36 37 38 39 40 39 39 41 42 43 43 42 42 42 41 40 39 38 38 39 41 43 43 43 43 43 43 43 44 47 52 52 50 48 46 44 45
22 20 18 17 19 21 21 20 20 19 17 16 17 17 16 16 16 17 17 18 20 22 22 24 26 27 28 29 32 35 38 41 44 45 47 48 47 44 41 40 41 42 41 38 34 33 33 34 36 37 38 39 40 39 39 40 43 46 47 45 45 44 43 43 42 40 40 42 44 45 42 40 40 41 41 42 45 48 51 51 50 49 48 48 49
24 22 21 20 21 22 22 21 20 20 18 18 19 18 17 18 18 19 20 21 23 24 24 26 28 30 30 31 34 37 39 42 45 46 48 49 47 43 41 40 39 40 39 36 33 32 33 35 36 36 38 40 41 42 41 40 42 46 49 48 47 45 43 42 43 42 43 45 44 42 40 40 42 42 40 41 44 46 48 49 49 49 49 50 52
27 25 23 22 22 23 22 21 21 20 20 20 20 19 18 19 20 22 23 24 26 26 27 28 31 32 32 33 36 39 41 43 45 46 48 50 48 44 40 39 38 38 37 35 34 33 34 37 38 38 39 41 42 42 41 42 44 48 51 47 42 39 38 38 40 42 43 43 41 40 41 43 42 40 39 41 43 45 46 47 48 50 51 52 52
30 28 25 24 24 24 22 22 22 21 21 21 21 20 20 20 22 24 26 27 29 29 29 30 33 34 35 36 38 41 42 43 45 46 48 50 48 43 40 39 37 36 36 35 36 36 37 39 40 40 40 41 43 43 42 43 45 48 50 44 36 34 35 36 38 40 40 39 39 41 43 43 41 40 41 42 43 44 46 47 49 51 52 52 51
32 30 27 26 26 24 23 23 23 22 22 22 21 21 21 21 23 26 28 29 31 31 31 33 35 36 37 38 40 42 43 44 45 46 47 49 46 42 40 39 37 36 37 37 38 38 39 41 41 40 40 41 42 42 42 44 45 45 44 40 35 35 37 38 38 39 39 39 41 43 43 43 42 42 42 43 44 46 47 48 49 51 51 50 48
34 32 29 27 27 25 24 24 24 23 23 22 22 23 23 24 27 29 30 32 34 34 34 36 37 38 38 40 41 43 44 45 45 46 47 48 47 44 43 41 39 38 39 40 41 41 40 41 41 40 39 39 41 43 43 43 42 39 37 36 37 39 41 40 39 39 40 42 43 44 43 43 43 43 44 45 46 47 48 49 50 50 50 48 45
36 34 31 28 27 25 24 25 24 23 23 24 25 26 27 28 31 32 33 36 37 37 39 40 40 39 40 42 42 43 44 45 46 47 47 47 47 46 45 43 40 40 41 42 43 43 42 41 41 39 38 38 40 41 39 36 34 34 35 37 40 43 44 43 41 41 43 45 45 45 45 44 45 46 46 47 47 48 49 49 49 49 47 44 41
37 35 32 29 27 26 25 25 25 24 25 27 28 29 31 32 34 35 37 39 41 42 43 43 42 42 43 43 43 43 44 45 47 47 47 47 47 47 46 44 42 42 42 43 45 45 43 42 42 41 40 39 37 34 33 35 36 37 39 40 42 44 45 44 44 45 46 46 46 45 45 45 46 46 47 48 49 49 50 49 47 45 42 39 37
39 37 34 31 29 28 27 27 27 27 29 30 31 32 34 35 36 38 40 42 44 45 46 44 43 43 45 45 44 43 44 46 47 48 48 47 47 46 46 45 45 44 43 43 44 44 43 43 43 42 39 37 35 34 37 40 40 40 41 42 43 44 45 45 46 48 48 48 46 45 45 46 46 47 48 49 50 49 48 46 43 40 37 36 36
41 39 36 32 30 29 28 28 29 30 32 33 34 36 37 37 38 40 42 44 46 47 48 46 44 44 45 46 45 44 45 47 48 48 48 47 47 46 46 46 46 45 44 44 44 43 42 41 40 37 35 34 36 39 42 42 42 42 43 43 44 44 45 47 49 50 49 47 46 47 47 47 48 49 49 49 48 47 45 41 37 35 35 35 36
44 40 37 33 31 29 29 31 32 33 34 35 36 38 38 38 39 40 42 45 47 49 50 49 49 48 47 45 44 44 46 47 48 49 48 47 47 47 47 47 47 46 44 43 42 41 40 38 36 34 33 35 39 43 44 43 43 43 44 44 44 46 47 49 50 49 48 48 48 48 48 49 49 50 49 48 46 43 39 36 34 34 35 36 36
46 43 39 35 32 31 33 34 35 35 36 37 40 41 39 38 39 41 44 47 49 51 52 51 50 47 42 40 42 44 46 47 48 48 48 47 48 48 47 46 45 44 43 41 39 38 38 37 36 35 35 39 44 45 44 44 44 44 44 45 45 47 48 49 49 49 49 49 49 48 49 49 49 49 47 45 41 38 35 34 35 35 36 37 37
48 45 41 36 34 36 37 37 38 38 39 40 41 41 39 38 40 43 46 48 50 51 50 47 43 39 37 39 42 45 46 47 48 47 47 47 48 47 45 44 43 42 41 39 37 37 37 39 40 39 39 44 48 46 43 44 45 45 45 45 46 48 49 50 50 49 49 48 48 48 48 49 47 45 43 39 36 34 34 35 36 36 37 37 37
50 46 42 38 38 39 40 40 41 41 41 40 39 39 39 40 42 45 47 47 48 47 45 41 38 38 40 42 44 46 47 47 46 46 47 47 46 45 43 42 41 41 40 39 38 37 37 39 41 41 42 46 48 45 43 44 45 45 45 46 48 49 50 49 48 47 47 47 47 47 47 46 43 40 37 34 34 34 35 36 36 37 37 37 36
49 46 42 41 42 41 40 41 41 40 39 38 38 39 40 42 45 46 46 44 44 43 41 39 39 40 42 44 46 48 48 46 45 46 47 47 45 43 42 41 40 40 39 39 38 38 37 37 38 40 43 46 46 44 43 44 44 44 45 47 48 48 47 46 45 45 46 46 46 45 43 41 38 35 34 34 35 36 36 36 36 36 36 36 34
46 46 44 43 43 42 40 40 39 39 39 40 40 40 43 45 46 45 43 42 41 40 40 40 40 42 44 46 48 49 48 46 46 46 47 46 43 41 40 41 41 40 40 40 39 39 38 38 39 42 45 47 46 43 43 43 44 45 46 47 46 45 44 44 44 45 45 44 43 41 39 37 35 35 35 36 36 36 37 37 36 36 35 35 33
45 46 46 44 43 42 40 39 39 40 41 41 42 43 45 45 44 42 41 40 40 40 41 41 42 44 46 47 48 49 48 47 46 46 45 42 40 40 40 41 41 41 41 41 40 39 39 39 41 44 46 46 45 43 43 44 45 45 45 44 43 43 43 44 44 44 43 41 39 38 37 37 36 37 37 37 38 37 37 36 35 35 34 33 32
45 46 46 45 44 42 40 40 40 42 42 42 43 44 43 42 42 41 40 39 40 42 42 43 44 46 47 48 49 49 49 47 45 43 41 40 40 40 41 41 41 41 41 42 41 40 40 41 43 45 46 45 45 44 44 44 44 43 42 42 42 43 43 43 42 40 38 36 35 36 36 36 37 37 37 37 37 37 36 35 34 33 33 31 30
43 44 45 45 44 42 41 41 42 42 43 43 43 42 41 41 41 41 40 40 41 43 43 45 47 47 47 48 49 48 46 44 42 40 40 40 40 41 41 41 41 41 41 42 42 41 41 42 44 45 45 45 45 45 44 42 41 40 41 41 42 42 41 39 37 35 34 34 35 36 36 36 35 35 35 35 35 35 34 33 32 31 30 29 28
42 43 44 44 43 43 43 42 42 42 43 43 41 41 41 42 42 42 42 42 43 44 45 47 48 47 47 48 47 45 43 41 40 39 39 40 40 41 41 41 41 41 41 41 41 41 42 43 44 44 45 44 43 42 40 39 39 40 41 42 41 40 37 35 33 33 34 35 35 35 35 35 34 34 33 33 32 32 32 31 30 29 27 26 26
43 42 42 42 43 44 44 43 43 43 44 43 41 42 43 43 43 43 43 44 45 46 47 48 49 48 48 47 44 42 41 40 39 39 39 40 40 40 40 39 39 39 40 41 42 42 42 43 43 42 42 41 40 38 38 38 40 41 41 40 38 35 33 32 32 34 35 34 34 34 34 34 34 33 33 32 31 31 30 29 28 27 26 25 25
42 41 41 42 44 44 44 43 44 45 45 44 44 44 43 43 43 44 45 47 48 48 48 50 50 49 46 44 42 41 40 39 39 39 39 39 39 39 38 38 39 40 41 42 43 43 42 41 40 39 39 38 38 38 39 40 40 39 37 35 33 32 31 31 32 33 33 33 33 34 34 34 33 33 32 32 31 30 29 27 26 25 25 25 25
42 42 43 44 45 44 45 46 46 46 46 46 46 46 45 45 45 46 47 49 49 49 50 52 51 48 45 43 41 40 39 39 39 39 39 38 38 38 38 39 40 41 42 42 42 41 39 38 38 37 37 38 38 39 39 39 37 35 32 31 30 30 30 31 32 32 33 33 33 33 33 32 32 31 30 30 29 28 27 26 25 25 25 25 25
42 43 44 45 45 46 46 47 47 47 47 47 47 48 47 46 46 47 50 50 49 49 50 50 48 45 43 41 40 39 39 39 39 38 38 38 38 38 39 39 40 40 40 40 39 38 37 37 37 37 38 39 39 38 37 35 32 31 30 29 29 29 29 30 31 31 32 32 33 32 31 30 29 29 28 28 27 26 25 25 25 25 25 25 24
44 45 46 46 47 47 47 48 49 49 47 47 48 48 47 46 48 50 51 49 49 49 49 47 44 42 41 39 39 39 39 39 38 38 38 38 38 38 39 39 39 38 38 38 38 37 36 37 37 37 38 38 36 34 32 30 29 28 28 28 28 28 29 29 30 31 31 32 32 31 30 29 28 27 26 25 25 25 25 25 25 25 25 24 24
46 47 47 48 48 48 48 49 50 48 45 45 47 47 47 49 52 52 50 49 48 47 46 44 41 39 38 38 38 39 38 38 38 38 38 39 39 39 38 38 38 37 37 37 37 36 36 37 37 36 36 34 31 29 27 27 27 27 27 26 26 27 28 29 30 30 31 31 31 30 28 27 26 25 25 24 24 25 25 25 25 25 24 24 24
47 48 48 49 49 49 49 49 48 47 47 47 48 49 51 53 53 51 49 48 46 44 42 40 38 37 37 38 38 38 38 38 38 39 40 39 39 38 37 37 36 36 36 37 36 35 35 34 34 34 32 29 27 25 24 25 25 25 24 24 24 25 27 27 28 29 29 29 29 28 27 26 25 24 24 24 24 25 25 25 24 24 24 24 24
48 49 49 50 50 50 48 46 45 46 48 49 50 51 53 52 49 46 44 42 40 39 38 37 36 36 37 37 38 38 38 38 39 39 39 38 38 37 36 36 36 35 35 35 34 33 32 32 31 30 28 26 24 23 23 24 23 22 22 22 22 24 24 25 25 26 26 27 27 27 26 26 25 24 25 25 25 25 25 24 24 24 23 23 24
48 49 49 49 48 47 46 45 46 47 48 49 51 51 51 48 44 41 38 37 36 36 36 35 36 37 37 37 37 37 38 38 39 39 38 37 36 36 35 35 35 35 35 34 33 32 31 30 28 27 25 24 23 22 22 22 21 20 20 21 21 22 22 22 23 24 25 25 25 25 25 25 25 25 25 25 25 25 25 25 25 24 24 24 24
50 52 52 51 51 50 49 48 49 49 49 49 49 48 46 42 38 36 35 34 34 34 35 35 36 36 36 37 37 37 37 37 37 37 36 35 35 35 35 35 35 34 34 33 32 31 30 28 26 25 23 23 22 21 20 19 19 18 19 19 20 20 21 22 23 23 24 24 24 24 25 25 25 25 25 25 25 25 25 25 25 25 24 25 25
52 53 55 55 55 54 52 51 51 50 49 49 48 46 43 39 35 34 33 33 33 34 35 36 36 36 36 36 36 36 36 36 35 35 35 34 34 34 34 34 34 34 33 32 31 30 28 26 24 22 21 21 21 20 18 17 17 17 18 18 19 20 21 22 23 23 23 24 24 24 24 25 25 26 26 26 26 25 25 25 25 24 24 25 24
52 54 55 55 54 52 52 52 51 50 49 47 45 42 39 36 34 34 34 34 34 34 34 35 35 35 35 35 35 35 35 34 34 34 34 34 33 33 34 33 33 32 32 30 29 28 26 24 22 21 20 20 20 18 16 16 16 17 18 19 19 20 21 22 23 23 24 24 24 24 25 25 25 26 26 26 26 25 25 25 25 25 25 25 24
55 56 57 57 54 50 47 46 44 42 41 40 38 35 34 35 34 34 34 34 34 34 34 34 34 34 34 34 34 34 33 33 34 34 34 33 32 32 32 32 31 30 29 29 28 26 25 24 22 21 20 19 17 16 15 15 16 17 18 19 20 21 22 22 23 24 24 25 25 25 26 26 26 27 27 26 26 26 26 26 26 26 26 26 25
54 53 52 53 51 47 43 41 38 36 34 33 32 32 33 34 34 34 34 34 33 33 33 32 32 32 32 32 32 32 32 34 34 33 32 32 32 32 31 30 29 28 28 28 28 27 26 25 23 21 19 17 15 15 15 15 16 17 18 19 20 21 22 23 24 24 25 25 26 26 26 27 27 28 28 28 27 26 26 26 26 26 25 25 23
49 48 45 42 40 40 37 34 31 30 30 30 31 32 33 33 34 34 34 33 33 33 32 32 33 33 32 31 31 32 33 34 33 33 32 32 32 31 31 29 28 28 29 29 29 27 26 24 22 20 17 15 14 14 15 16 17 18 18 19 20 22 22 23 24 25 25 26 27 27 27 27 28 28 29 29 28 27 26 26 25 24 22 21 19
42 41 36 30 28 31 31 27 26 28 30 30 32 32 32 33 33 33 33 33 33 32 32 32 32 33 32 31 31 32 33 34 33 32 32 32 31 31 30 29 28 29 29 29 27 25 23 22 20 18 15 14 14 15 15 17 18 19 19 20 21 22 23 24 24 25 26 27 27 27 27 28 28 28 29 29 28 27 25 24 22 20 18 16 16
35 33 29 25 25 28 28 27 27 30 31 31 31 32 32 32 33 33 33 33 33 32 31 31 32 31 31 31 32 33 33 33 32 32 32 31 31 30 29 28 28 28 28 26 24 22 20 19 18 16 15 14 15 15 16 18 19 19 20 21 22 23 24 24 25 25 26 26 27 27 27 28 28 28 28 28 28 27 24 22 20 17 15 15 15
26 25 25 24 25 27 28 28 29 31 32 32 32 31 32 33 33 33 33 33 32 32 32 32 31 31 31 32 32 32 31 31 31 31 31 30 30 29 28 28 27 25 23 22 21 19 18 18 17 15 15 15 16 16 17 18 19 20 21 22 23 24 24 25 25 25 26 26 27 27 27 27 27 27 27 27 27 27 24 21 18 16 15 15 15
24 24 25 26 26 28 29 30 31 32 32 32 32 33 34 34 33 33 33 33 32 33 33 32 32 32 32 32 32 31 30 30 30 30 29 29 28 27 26 26 24 21 20 19 19 17 17 17 16 16 15 16 17 18 18 19 19 20 21 22 23 24 24 25 25 25 25 26 26 26 27 27 27 27 26 26 26 26 24 21 19 17 16 16 15
25 25 26 27 28 29 30 30 31 32 33 33 34 34 34 34 33 33 33 33 33 33 32 32 32 32 32 32 32 31 30 30 29 28 28 28 27 26 24 23 21 19 18 18 18 17 16 17 17 17 17 17 18 19 19 19 20 21 22 22 23 24 24 24 24 24 24 25 25 26 26 26 26 26 26 25 25 25 24 22 20 18 17 16 15
Wind_Direction
242 249 255 257 258 255 251 251 252 252 253 256 254 248 251 261 273 284 289 289 292 300 309 317 321 324 327 330 332 332 330 329 328 326 325 324 323 323 322 322 322 323 323 322 320 319 315 310 307 307 307 306 305 300 292 286 284 283 282 281 281 283 286 291 293 292 290 289 289 290 292 293 295 296 296 296 295 296 298 301 303 306 309 309 310
247 255 262 261 257 256 252 248 247 248 249 250 247 245 253 266 275 282 286 287 290 300 311 317 321 324 326 329 332 331 328 328 328 327 327 326 325 323 322 321 321 322 322 321 319 316 313 312 312 313 311 309 308 304 296 289 285 284 283 283 283 283 285 288 290 289 287 285 285 286 288 290 292 293 293 292 291 291 296 301 302 302 303 304 305
259 265 271 265 254 251 251 248 246 245 242 240 241 248 261 269 272 274 278 285 293 304 312 316 319 322 324 326 327 326 325 326 327 328 328 327 326 324 323 322 321 321 322 321 320 315 311 311 314 315 314 312 311 308 301 293 288 285 284 283 284 284 284 286 288 288 286 284 284 285 287 288 289 289 289 289 287 288 293 300 302 301 301 301 301
262 273 279 271 256 248 248 247 242 240 236 234 240 255 266 268 267 265 269 284 296 304 311 314 317 320 323 324 324 325 326 327 330 329 325 325 326 326 325 323 321 322 323 322 319 315 311 309 311 313 313 312 312 310 306 299 291 286 284 283 284 285 284 285 287 288 286 285 285 288 289 289 289 288 287 286 286 288 292 296 298 299 299 298 298
255 271 282 282 267 250 243 241 237 235 235 239 247 257 264 266 265 264 270 284 297 304 309 313 317 321 324 324 325 327 328 330 331 328 323 324 326 325 324 323 322 323 326 324 319 314 311 309 309 310 311 311 311 311 310 305 297 289 285 285 286 287 287 286 286 287 286 285 287 290 292 291 289 287 285 285 288 292 294 294 295 296 296 296 296
251 263 274 283 276 256 245 238 234 233 238 247 252 253 254 257 262 269 278 288 297 304 310 315 320 323 325 325 326 328 329 329 328 326 324 324 325 325 324 324 323 324 325 325 321 315 310 308 308 309 309 310 310 312 312 308 301 294 289 287 288 289 289 288 287 287 287 289 291 293 293 291 288 285 283 284 289 294 296 297 297 296 295 294 294
248 255 265 276 276 262 250 239 235 238 242 247 248 243 241 248 260 271 281 291 300 307 313 318 322 323 323 324 326 328 328 327 325 324 326 325 324 326 326 324 323 323 322 322 320 315 308 306 307 307 309 309 308 311 313 310 304 297 292 289 288 289 289 288 287 288 289 291 293 294 294 292 287 282 280 282 287 295 300 301 299 297 295 292 291
243 249 258 267 273 265 254 244 239 242 242 242 244 241 239 243 250 264 280 294 304 310 316 319 320 321 323 324 327 328 327 325 323 324 326 326 324 325 324 321 320 321 320 318 317 313 307 304 306 308 309 308 307 309 311 311 307 301 295 291 288 287 287 286 287 288 290 292 293 295 295 293 288 281 278 279 285 295 303 303 299 297 294 291 289
241 243 250 260 268 264 257 250 244 243 243 242 243 242 242 238 232 252 286 301 307 311 316 318 318 320 324 326 328 328 324 322 322 324 325 325 323 323 322 321 319 319 319 317 314 311 307 305 307 308 308 307 306 306 307 308 307 302 297 293 289 287 285 286 287 288 291 293 294 295 294 293 289 282 278 279 285 295 302 302 298 294 291 289 288
242 240 242 253 262 261 257 254 250 247 243 239 241 243 242 237 235 258 288 300 305 309 314 315 316 319 323 325 325 324 321 318 319 322 323 322 320 321 324 322 319 317 317 314 310 307 305 305 306 307 307 306 305 304 306 306 305 302 298 294 291 289 287 285 286 287 290 293 295 295 295 294 291 285 280 279 285 294 299 299 296 293 289 286 286
240 239 238 245 255 258 257 256 254 250 242 236 240 242 242 248 259 273 285 293 298 303 309 310 312 316 319 320 320 319 317 316 318 321 320 319 320 323 324 319 315 315 315 312 307 303 301 302 304 305 305 305 304 304 305 305 303 300 297 293 289 287 284 283 283 286 290 294 297 298 297 296 294 291 286 282 285 291 294 293 292 291 289 287 287
240 240 238 238 248 255 256 255 253 250 241 235 236 240 248 262 272 277 282 288 292 298 302 305 308 311 312 313 315 315 314 315 318 320 319 319 321 323 319 315 314 314 313 310 305 302 300 300 302 303 303 303 302 303 304 303 301 299 296 290 285 282 280 280 282 285 290 295 299 299 298 298 298 296 292 287 285 287 289 288 288 288 288 288 289
244 241 239 238 244 250 252 251 249 245 239 234 234 242 256 268 274 277 281 285 289 293 298 302 305 307 309 311 312 311 312 315 318 319 318 319 321 320 316 315 315 314 312 309 305 303 301 299 300 302 301 301 302 303 303 302 299 296 292 286 282 278 275 277 281 286 291 296 298 299 299 300 300 297 293 288 286 286 286 287 288 289 289 290 292
248 245 243 240 241 244 246 246 242 239 237 235 237 245 260 270 274 279 282 286 289 293 297 301 304 305 307 309 309 309 311 315 317 318 319 319 319 318 316 314 313 312 312 311 308 307 303 300 300 299 300 301 302 302 302 301 300 298 292 287 286 282 278 280 286 290 294 296 298 299 300 301 300 297 292 290 289 289 290 290 291 292 293 293 295
250 249 246 243 241 240 240 240 237 237 238 239 242 249 260 270 275 280 284 287 290 294 298 301 303 304 305 306 306 307 311 314 316 317 318 318 317 315 313 311 309 311 313 312 310 309 305 302 301 299 298 299 298 299 301 301 302 301 294 289 292 294 291 291 293 294 295 296 297 300 301 301 300 298 296 295 294 294 294 294 294 294 295 295 295
250 249 247 243 240 237 235 235 236 237 241 244 247 253 261 269 275 280 284 287 290 293 296 298 300 302 304 304 304 306 310 313 315 316 317 318 318 316 314 312 312 313 313 311 310 308 305 303 302 300 298 297 297 299 300 300 301 300 293 288 293 299 298 296 296 294 294 296 299 301 302 302 302 302 300 299 298 297 297 297 297 296 296 296 295
249 249 247 243 238 234 232 234 238 241 246 251 255 260 266 271 275 279 283 286 288 290 292 295 297 300 302 302 302 305 309 311 314 315 315 317 319 319 317 317 318 317 315 312 310 308 306 303 302 300 299 298 298 299 300 301 302 302 297 294 296 298 298 296 295 295 297 300 302 304 304 304 303 303 302 300 299 298 299 300 299 298 298 297 295
246 246 247 244 238 231 230 235 242 247 252 257 262 266 270 273 276 280 283 285 286 289 292 293 296 299 300 300 300 303 307 310 311 313 314 315 316 318 319 319 318 316 314 312 310 308 306 304 302 301 301 300 300 301 302 305 307 307 305 301 298 297 296 297 298 299 301 304 305 306 305 304 304 304 303 301 301 301 302 301 299 298 297 296 294
244 244 246 245 238 232 233 239 245 250 255 259 264 267 270 275 279 281 283 285 288 291 293 295 297 300 300 299 299 301 305 308 308 308 310 313 314 317 318 317 315 314 313 311 309 306 304 302 301 301 301 301 302 305 307 309 310 309 306 302 298 297 298 299 300 302 304 306 306 306 306 305 305 304 303 303 302 302 302 301 299 297 296 295 294
240 241 243 243 239 235 237 242 246 252 256 260 264 267 270 275 279 280 282 286 289 290 292 294 296 299 301 299 297 300 304 306 305 304 307 310 313 315 315 314 313 313 312 310 309 306 304 301 300 301 301 302 303 307 310 310 309 306 303 300 299 299 299 301 304 305 306 305 305 305 306 306 305 304 304 304 303 302 301 300 298 296 295 296 297
238 238 240 241 240 238 239 243 248 253 256 260 265 268 272 276 279 281 283 285 288 291 292 292 292 296 299 297 294 298 303 303 303 303 306 309 312 314 313 312 312 312 311 310 309 307 304 301 300 301 301 302 306 310 311 310 306 303 301 301 301 301 302 303 305 305 305 305 305 306 306 305 305 304 304 304 303 302 301 299 298 297 297 298 298
237 237 238 240 240 239 241 245 249 253 257 262 266 267 270 276 280 283 285 286 288 290 291 291 292 294 296 293 291 296 302 302 301 303 307 310 311 312 311 311 311 311 311 310 309 306 303 300 297 295 296 302 310 313 311 308 304 301 300 300 300 300 301 302 303 304 305 306 307 306 306 305 304 304 304 303 302 301 299 299 299 299 299 299 299
237 237 237 237 238 239 242 245 250 254 258 261 263 265 271 279 283 285 285 286 288 290 292 294 296 296 295 293 294 299 301 300 302 305 308 310 310 310 311 311 310 310 309 309 307 305 302 297 292 288 292 304 313 313 308 304 301 299 298 298 298 300 301 303 305 306 306 306 305 305 305 304 304 304 303 302 300 299 299 299 300 300 299 299 299
237 237 236 236 237 238 241 246 249 253 257 259 262 267 275 282 285 286 286 287 291 296 298 298 298 298 298 298 300 301 301 301 303 306 308 308 308 309 310 309 308 308 307 308 307 306 301 296 291 288 291 302 310 309 303 300 298 297 297 298 300 302 304 305 305 305 304 304 304 305 304 304 304 303 301 300 299 299 300 300 300 299 299 299 300
237 238 236 236 237 239 242 246 248 251 256 261 266 272 278 283 284 285 287 291 296 299 299 297 297 298 300 301 301 301 302 303 305 306 305 305 306 308 308 307 307 307 308 309 309 307 303 299 294 290 291 300 306 305 300 298 297 297 299 300 302 303 304 304 304 304 303 304 304 304 304 304 303 302 300 300 300 300 300 300 299 299 299 299 300
237 236 235 235 238 241 244 248 251 254 258 263 269 275 279 281 282 284 288 293 297 297 294 293 295 297 299 300 300 301 302 303 304 303 302 304 306 307 306 306 306 308 309 310 308 306 304 301 296 292 295 301 304 302 299 298 298 298 301 302 302 303 303 303 304 304 304 305 305 305 304 303 302 302 301 300 300 299 300 299 299 298 298 299 300
234 234 234 235 238 243 247 250 254 257 260 265 270 275 277 278 281 284 287 290 293 292 291 291 293 295 296 297 298 300 301 301 300 300 301 303 305 305 305 305 307 308 309 309 307 306 304 301 296 295 299 302 302 300 298 299 300 302 303 303 303 304 304 305 305 306 306 307 306 304 303 303 303 303 301 300 299 298 298 299 299 299 299 300 300
231 232 234 236 239 242 246 249 253 257 260 264 269 272 275 278 282 285 286 286 288 289 289 290 291 292 294 296 299 300 300 299 298 299 301 303 304 304 305 306 306 307 308 309 308 306 302 298 297 297 300 300 300 300 301 302 305 306 306 305 305 305 306 306 307 307 307 306 304 303 303 304 304 303 301 300 299 298 299 299 300 300 300 300 300
228 232 235 237 239 242 246 249 252 255 259 262 266 270 274 278 282 283 283 284 287 290 291 290 290 290 292 295 299 300 298 297 298 299 301 302 303 304 305 306 306 307 308 308 308 305 301 298 298 298 299 300 301 303 306 308 309 308 306 305 305 306 306 307 307 306 305 303 301 301 301 301 300 299 299 299 299 299 300 300 300 300 299 299 299
227 231 234 237 239 242 246 249 251 254 257 261 266 269 272 275 278 281 282 284 287 291 291 289 288 289 292 296 298 298 297 297 298 300 301 302 303 303 304 305 306 306 307 306 306 304 302 300 300 300 301 303 305 308 309 309 307 305 303 304 305 306 308 308 307 304 302 300 300 301 301 300 299 298 299 298 298 299 299 300 299 298 298 298 298
226 230 233 237 240 243 246 248 251 254 258 262 265 266 268 272 276 280 283 284 287 289 289 289 291 293 295 297 298 297 297 298 299 299 300 301 302 302 303 305 306 306 306 306 305 304 302 301 301 303 304 305 306 306 306 304 303 302 303 305 307 309 310 308 306 304 302 302 304 304 304 303 302 301 300 299 299 300 300 299 298 297 298 299 300
226 230 235 239 242 244 247 248 251 255 257 260 262 263 266 270 275 280 282 283 285 287 288 292 295 297 297 298 298 297 297 298 298 299 300 301 302 303 304 305 305 305 305 305 303 302 301 302 303 304 304 303 303 303 303 303 304 305 307 309 310 311 311 308 306 305 304 305 307 306 306 306 305 304 304 303 303 303 302 300 299 300 301 302 302
228 233 237 240 242 245 247 249 252 255 257 259 261 263 266 271 275 279 282 283 284 285 288 292 295 296 296 297 296 297 298 298 299 300 301 302 302 303 304 304 304 305 305 304 303 303 303 304 304 303 303 303 304 305 306 307 308 310 312 312 312 312 310 309 307 307 308 310 310 309 308 308 308 308 307 306 305 303 301 301 302 303 304 304 303
230 234 237 240 242 245 248 250 252 255 257 259 261 264 268 271 275 279 281 282 282 285 289 292 294 294 295 296 296 297 298 298 299 300 301 301 302 302 303 304 304 305 305 304 304 304 305 304 304 304 305 307 308 309 310 311 312 314 314 313 312 311 311 311 311 312 313 313 312 311 311 310 310 309 307 305 303 302 303 304 305 305 305 304 303
232 235 238 240 242 245 247 250 253 255 256 258 262 266 270 272 276 279 280 281 284 288 291 292 292 293 294 295 296 297 297 298 299 300 300 301 302 303 304 304 304 304 304 304 304 305 305 305 306 307 308 309 309 310 312 313 315 315 314 313 312 313 314 314 315 316 317 316 315 314 313 312 310 309 307 306 307 308 308 308 307 306 305 304 302
233 236 238 240 243 245 247 250 251 251 253 258 263 266 269 272 275 276 277 282 288 290 291 291 291 292 294 295 295 296 297 298 299 299 299 301 302 303 303 303 304 304 305 305 306 306 307 307 308 309 309 309 311 313 314 315 315 314 312 313 315 316 318 318 319 320 320 319 318 317 315 314 314 312 312 312 313 313 311 309 308 306 305 303 302
235 237 239 241 242 245 248 251 253 255 259 264 267 268 269 270 271 273 278 285 290 290 289 289 291 292 293 294 294 296 297 298 298 299 300 301 301 301 302 303 304 305 306 307 308 309 308 308 308 307 308 310 312 314 315 314 312 311 313 316 319 320 321 322 322 323 323 322 322 321 319 318 318 317 317 318 317 315 312 310 308 307 306 304 303
239 240 241 243 244 246 248 251 256 261 266 269 269 269 268 269 272 277 284 288 289 287 287 289 290 291 292 293 294 296 296 297 299 300 300 300 300 301 302 304 305 306 307 309 310 309 308 307 306 306 308 311 313 313 311 310 309 311 315 320 322 323 324 325 326 327 327 327 327 326 324 323 321 321 321 320 318 315 313 311 310 310 308 307 305
244 244 245 246 248 249 249 252 257 262 265 268 269 270 271 274 279 285 287 287 286 286 287 288 289 291 292 293 294 295 297 298 300 300 300 300 300 301 303 305 306 307 309 309 309 307 306 306 305 306 309 311 312 310 308 308 309 313 318 322 324 325 327 329 330 331 332 333 332 330 328 327 325 324 322 319 316 315 313 312 311 311 310 309 307
250 250 250 250 252 253 255 258 260 263 265 268 271 274 277 282 285 286 285 284 284 286 287 288 289 291 292 293 295 297 299 300 301 300 299 300 301 303 304 305 306 308 308 308 306 305 305 305 305 306 307 308 308 307 305 306 310 315 319 323 326 327 329 332 334 335 337 337 336 334 332 329 327 325 323 319 316 314 312 311 310 310 309 308 307
253 254 255 255 255 256 258 259 261 263 266 269 273 278 282 284 284 282 282 282 284 285 286 288 290 292 293 295 297 299 301 301 300 299 299 300 302 303 304 305 306 308 308 307 306 305 305 305 305 305 305 305 304 302 301 304 309 315 319 323 326 328 330 333 335 337 338 339 339 337 335 332 329 327 325 322 319 317 315 313 311 310 309 308 307
254 255 255 255 254 255 257 259 261 265 269 272 276 280 282 281 280 279 280 282 284 286 288 289 291 293 295 297 298 300 300 298 297 297 297 298 300 301 304 306 307 308 308 307 306 306 307 307 305 303 302 301 299 297 297 302 308 313 318 322 325 327 329 332 334 335 337 339 340 339 338 336 333 330 327 325 323 322 320 318 316 315 313 311 309
256 258 259 258 256 255 255 257 259 263 268 272 275 278 280 279 278 279 280 282 285 287 289 290 292 295 297 297 297 297 296 294 294 294 295 296 299 302 304 306 306 307 307 306 306 306 306 304 302 300 298 296 295 294 295 301 307 312 317 321 323 325 327 329 331 332 334 336 338 338 338 338 336 334 332 329 327 326 324 323 322 320 318 316 314
257 259 260 260 257 256 256 258 259 262 267 271 273 275 277 278 279 280 282 284 287 288 290 292 294 296 296 295 294 293 291 291 291 292 293 296 299 302 305 306 306 306 306 305 304 304 303 301 299 298 296 292 290 289 293 300 306 309 312 316 320 322 324 326 328 329 331 332 334 335 337 338 338 337 336 334 332 331 329 327 325 323 320 318 317
256 257 258 259 259 258 259 261 263 265 267 269 271 272 273 275 278 280 283 286 288 290 291 292 293 293 293 292 290 289 289 289 290 291 292 296 299 302 305 305 305 303 303 302 301 301 301 299 298 297 294 289 286 286 291 297 300 303 307 312 316 319 321 323 325 326 327 329 331 332 334 336 338 339 338 338 337 336 334 331 328 325 322 320 319
259 259 260 263 265 265 263 262 264 267 267 268 269 271 272 275 278 280 283 286 288 289 289 289 289 289 289 288 288 288 288 288 289 291 293 296 300 302 304 304 303 301 300 300 299 299 298 297 296 294 290 285 282 283 288 292 294 298 303 309 312 315 317 319 321 323 324 325 328 330 332 334 336 339 340 340 340 340 338 336 333 331 329 328 327
259 258 256 255 259 266 269 267 265 266 267 268 269 271 274 277 279 281 284 285 286 287 287 287 287 286 286 286 286 287 287 288 289 292 295 298 301 302 303 302 301 300 299 298 298 297 295 293 292 290 286 283 282 282 283 287 291 296 301 306 309 312 314 317 319 320 321 323 325 327 330 332 335 337 340 341 342 342 342 341 341 341 341 343 344
254 254 253 249 251 259 265 266 265 267 269 270 272 274 277 279 281 283 284 284 284 284 284 284 284 283 283 283 284 285 286 288 290 293 296 298 300 301 301 300 299 298 297 295 294 293 291 290 288 287 285 284 283 283 284 287 291 297 302 306 309 311 314 315 317 319 320 321 323 325 328 330 333 335 338 341 342 343 344 344 345 346 350 353 355
253 255 258 258 257 259 263 266 269 270 272 274 276 278 279 280 281 282 282 282 282 281 280 280 280 280 280 281 283 284 286 289 291 294 296 297 298 299 299 298 296 293 291 289 289 289 288 286 286 286 285 285 284 285 287 290 294 299 303 306 309 311 313 315 316 318 320 321 323 324 326 328 331 333 335 339 341 342 343 343 342 343 347 352 354
259 260 261 262 262 263 266 268 270 271 274 276 278 278 279 279 280 280 280 280 279 278 278 278 277 278 279 281 283 285 288 290 291 294 295 296 296 296 295 292 289 285 281 281 282 283 283 282 283 284 284 284 286 287 290 293 297 300 303 306 308 310 312 314 315 318 319 320 322 323 325 327 329 331 333 335 338 341 342 341 338 337 339 345 350
260 261 262 263 263 264 265 266 268 270 273 275 276 277 278 279 279 278 278 277 277 277 277 277 277 278 280 282 283 284 286 288 289 291 292 292 292 291 289 285 281 279 277 278 279 280 279 280 282 282 282 283 285 288 291 294 297 300 303 305 307 309 311 313 315 317 318 319 321 322 324 326 327 329 330 333 335 337 340 340 336 332 333 338 344
Height
5900 5901 5902 5903 5904 5905 5905 5906 5907 5908 5908 5909 5909 5910 5910 5910 5911 5911 5911 5911 5911 5911 5910 5910 5910 5909 5908 5907 5906 5905 5903 5903 5902 5901 5899 5898 5897 5896 5894 5892 5891 5890 5889 5887 5886 5885 5884 5883 5882 5880 5879 5878 5877 5876 5875 5875 5874 5874 5873 5873 5873 5872 5872 5872 5871 5868 5866 5865 5864 5863 5862 5861 5860 5860 5859 5859 5858 5857 5855 5854 5854 5852 5851 5849 5847
5898 5899 5900 5901 5902 5903 5903 5904 5904 5905 5906 5907 5907 5908 5908 5908 5909 5909 5909 5909 5909 5909 5909 5908 5908 5907 5906 5905 5904 5902 5901 5900 5899 5898 5897 5896 5894 5893 5891 5890 5888 5887 5885 5884 5883 5882 5881 5880 5879 5877 5876 5875 5874 5873 5872 5872 5871 5871 5870 5869 5869 5868 5868 5867 5866 5865 5863 5862 5861 5860 5859 5858 5857 5856 5856 5855 5854 5853 5852 5851 5849 5849 5847 5845 5843
5896 5897 5898 5899 5900 5901 5901 5901 5902 5903 5904 5904 5905 5905 5906 5906 5907 5907 5907 5907 5908 5907 5907 5907 5906 5905 5904 5903 5902 5900 5899 5897 5896 5895 5894 5892 5891 5890 5888 5886 5884 5883 5882 5880 5879 5878 5877 5876 5875 5874 5873 5871 5871 5870 5869 5869 5868 5867 5867 5866 5865 5864 5863 5863 5862 5862 5860 5859 5858 5857 5856 5855 5854 5853 5853 5852 5851 5850 5849 5847 5846 5844 5843 5841 5839
5894 5895 5896 5897 5898 5899 5899 5899 5900 5901 5902 5902 5903 5903 5903 5904 5905 5905 5906 5906 5906 5905 5905 5905 5904 5903 5902 5900 5899 5898 5896 5895 5893 5892 5891 5889 5888 5888 5886 5884 5882 5880 5878 5877 5876 5874 5873 5872 5871 5870 5869 5868 5867 5867 5866 5866 5865 5864 5863 5862 5861 5860 5860 5859 5858 5858 5857 5855 5854 5853 5852 5851 5850 5849 5849 5848 5847 5846 5845 5844 5842 5840 5838 5837 5835
5892 5893 5894 5895 5896 5896 5897 5897 5898 5899 5899 5900 5900 5901 5901 5901 5902 5903 5904 5904 5904 5903 5903 5902 5902 5901 5899 5898 5896 5895 5893 5891 5890 5888 5887 5887 5886 5885 5883 5882 5879 5877 5875 5874 5872 5871 5870 5869 5867 5866 5865 5864 5863 5863 5863 5862 5861 5861 5860 5859 5858 5857 5856 5855 5854 5853 5852 5851 5850 5849 5848 5847 5846 5845 5844 5843 5842 5841 5840 5839 5838 5836 5834 5832 5830
5890 5891 5892 5893 5893 5894 5895 5895 5896 5896 5897 5897 5898 5899 5899 5899 5900 5900 5901 5902 5902 5901 5900 5900 5899 5898 5897 5895 5894 5892 5890 5888 5886 5885 5885 5883 5882 5882 5880 5879 5877 5875 5872 5871 5869 5868 5866 5864 5863 5862 5861 5860 5859 5858 5858 5858 5857 5857 5856 5855 5854 5853 5852 5850 5849 5849 5848 5847 5846 5845 5843 5842 5841 5840 5839 5838 5838 5837 5835 5834 5832 5830 5828 5826 5824
5888 5889 5889 5890 5891 5892 5892 5893 5893 5894 5894 5895 5895 5896 5897 5897 5898 5898 5898 5899 5899 5899 5898 5897 5896 5895 5894 5892 5891 5889 5887 5885 5883 5883 5882 5880 5878 5878 5877 5875 5874 5872 5869 5867 5865 5864 5862 5860 5859 5858 5856 5855 5854 5854 5853 5853 5852 5852 5851 5850 5849 5848 5847 5846 5845 5844 5843 5842 5841 5840 5839 5838 5837 5835 5834 5833 5832 5831 5830 5828 5826 5823 5821 5820 5819
5886 5886 5887 5888 5889 5889 5890 5890 5891 5891 5892 5892 5893 5894 5895 5895 5896 5895 5895 5896 5896 5896 5896 5895 5893 5892 5891 5889 5888 5887 5885 5882 5879 5879 5879 5877 5875 5874 5873 5871 5870 5868 5866 5863 5861 5859 5858 5856 5855 5854 5852 5851 5850 5850 5849 5848 5847 5847 5846 5845 5844 5843 5842 5841 5840 5839 5839 5838 5836 5835 5834 5833 5831 5829 5828 5827 5826 5825 5823 5822 5821 5817 5815 5813 5812
5883 5884 5884 5885 5886 5887 5887 5887 5888 5888 5889 5890 5890 5891 5892 5893 5893 5893 5893 5893 5892 5893 5893 5892 5890 5889 5887 5886 5885 5883 5881 5879 5877 5875 5875 5874 5872 5871 5870 5868 5866 5864 5862 5859 5857 5855 5854 5853 5851 5850 5848 5847 5846 5846 5845 5844 5843 5841 5840 5839 5839 5838 5837 5836 5835 5834 5833 5832 5831 5829 5829 5827 5825 5823 5822 5820 5819 5818 5816 5815 5814 5812 5809 5807 5805
5880 5881 5882 5883 5883 5884 5884 5884 5885 5885 5886 5887 5888 5888 5889 5890 5891 5891 5891 5890 5889 5889 5889 5889 5887 5886 5884 5883 5881 5880 5878 5876 5874 5873 5872 5870 5868 5867 5866 5863 5861 5859 5857 5855 5853 5851 5850 5849 5848 5846 5845 5844 5842 5841 5841 5840 5838 5836 5834 5833 5832 5832 5832 5831 5830 5829 5828 5827 5825 5824 5822 5821 5819 5817 5816 5814 5812 5811 5810 5808 5806 5804 5802 5800 5798
5877 5878 5879 5880 5880 5880 5880 5881 5882 5882 5883 5884 5885 5885 5886 5887 5887 5888 5888 5887 5887 5887 5887 5886 5885 5883 5882 5880 5879 5877 5875 5873 5871 5870 5868 5865 5863 5862 5860 5858 5855 5854 5852 5850 5849 5847 5846 5845 5844 5843 5842 5840 5838 5838 5837 5836 5834 5831 5829 5828 5827 5826 5826 5825 5824 5823 5822 5820 5819 5817 5816 5815 5813 5811 5809 5808 5807 5805 5803 5800 5798 5797 5794 5793 5791
5874 5874 5876 5876 5876 5876 5877 5878 5878 5879 5880 5881 5881 5882 5882 5883 5884 5884 5884 5884 5884 5884 5883 5882 5881 5880 5879 5878 5876 5874 5872 5869 5868 5866 5864 5861 5859 5858 5855 5853 5851 5849 5847 5846 5844 5843 5842 5841 5840 5839 5838 5836 5834 5834 5833 5831 5828 5825 5823 5821 5820 5819 5818 5818 5817 5816 5815 5814 5813 5811 5810 5809 5807 5804 5803 5801 5800 5798 5795 5793 5791 5789 5787 5785 5783
5871 5871 5872 5872 5873 5873 5873 5874 5875 5876 5877 5878 5878 5879 5879 5880 5880 5880 5881 5881 5881 5881 5880 5879 5878 5876 5875 5874 5872 5870 5868 5866 5864 5862 5859 5857 5855 5853 5851 5849 5847 5845 5843 5841 5840 5839 5838 5837 5836 5836 5833 5831 5830 5828 5827 5825 5822 5819 5816 5813 5811 5811 5811 5810 5810 5810 5809 5808 5807 5805 5803 5802 5800 5797 5795 5793 5791 5789 5788 5785 5783 5780 5778 5776 5774
5867 5868 5868 5868 5869 5869 5869 5870 5871 5872 5873 5874 5875 5875 5876 5876 5876 5876 5876 5877 5877 5877 5876 5875 5874 5873 5871 5870 5868 5866 5864 5862 5860 5858 5855 5852 5849 5848 5847 5845 5843 5841 5839 5838 5836 5835 5834 5833 5832 5831 5829 5827 5825 5823 5821 5820 5817 5813 5811 5809 5807 5806 5806 5806 5805 5805 5804 5802 5800 5799 5797 5795 5793 5790 5787 5785 5784 5782 5780 5778 5775 5772 5770 5767 5765
5863 5864 5865 5865 5865 5865 5866 5867 5868 5869 5870 5871 5871 5872 5873 5872 5872 5872 5872 5872 5872 5872 5872 5871 5869 5868 5867 5866 5864 5862 5861 5859 5858 5855 5852 5847 5844 5844 5844 5842 5839 5837 5835 5834 5832 5831 5830 5828 5827 5826 5825 5822 5820 5818 5816 5815 5812 5809 5806 5806 5805 5804 5802 5802 5801 5800 5798 5796 5794 5793 5790 5788 5786 5783 5781 5778 5776 5774 5772 5770 5768 5764 5761 5759 5757
5858 5860 5861 5861 5861 5862 5862 5863 5864 5865 5866 5867 5868 5869 5869 5869 5869 5868 5868 5868 5867 5867 5867 5866 5864 5863 5862 5861 5859 5858 5858 5856 5855 5852 5848 5843 5841 5841 5839 5837 5835 5834 5832 5829 5828 5826 5825 5823 5822 5821 5820 5817 5815 5813 5811 5810 5808 5805 5803 5802 5801 5800 5798 5797 5796 5794 5792 5790 5788 5786 5783 5780 5778 5776 5773 5771 5769 5767 5765 5763 5760 5756 5754 5752 5750
5854 5856 5857 5858 5858 5858 5859 5860 5860 5861 5862 5864 5865 5865 5865 5865 5865 5864 5864 5864 5863 5863 5862 5861 5860 5859 5858 5857 5855 5855 5854 5853 5851 5848 5844 5840 5838 5836 5834 5832 5831 5829 5827 5824 5823 5822 5821 5819 5817 5816 5815 5813 5811 5808 5806 5805 5803 5801 5799 5798 5797 5796 5794 5792 5790 5788 5785 5783 5781 5779 5776 5773 5771 5769 5766 5764 5761 5759 5758 5755 5751 5748 5746 5744 5743
5850 5852 5853 5854 5854 5855 5856 5857 5857 5858 5859 5860 5861 5861 5861 5861 5861 5861 5860 5860 5860 5859 5859 5858 5857 5856 5854 5853 5852 5851 5851 5849 5846 5843 5840 5837 5835 5833 5830 5829 5827 5825 5822 5820 5818 5817 5816 5815 5812 5811 5809 5808 5806 5804 5802 5801 5799 5797 5795 5794 5792 5790 5788 5786 5784 5782 5779 5777 5774 5772 5769 5766 5764 5762 5759 5757 5754 5751 5750 5747 5743 5740 5738 5737 5735
5846 5848 5849 5851 5852 5852 5853 5854 5854 5855 5855 5856 5857 5857 5857 5857 5857 5857 5857 5857 5857 5856 5855 5854 5853 5852 5850 5849 5848 5847 5846 5844 5842 5839 5836 5834 5831 5829 5827 5825 5822 5821 5819 5816 5814 5812 5811 5809 5807 5806 5804 5802 5801 5800 5799 5797 5795 5793 5790 5788 5786 5784 5782 5780 5778 5776 5774 5771 5768 5765 5762 5759 5756 5754 5751 5749 5746 5744 5742 5739 5737 5733 5731 5729 5728
5842 5844 5846 5847 5848 5849 5850 5850 5851 5851 5852 5852 5853 5854 5854 5854 5854 5854 5854 5853 5853 5852 5851 5850 5848 5847 5846 5845 5844 5843 5841 5839 5836 5834 5832 5830 5828 5825 5823 5820 5818 5816 5815 5812 5810 5808 5806 5804 5802 5801 5800 5798 5796 5795 5794 5792 5790 5787 5785 5782 5780 5778 5776 5774 5771 5769 5767 5765 5762 5759 5756 5752 5749 5746 5744 5742 5739 5737 5734 5732 5730 5727 5725 5723 5721
5837 5839 5841 5843 5844 5846 5847 5847 5847 5848 5848 5849 5849 5850 5850 5851 5851 5851 5850 5850 5849 5848 5846 5845 5844 5842 5841 5840 5839 5837 5836 5833 5831 5829 5827 5825 5823 5821 5818 5816 5814 5812 5810 5808 5806 5803 5802 5800 5798 5797 5795 5794 5792 5790 5788 5786 5784 5781 5779 5776 5774 5772 5770 5767 5765 5763 5761 5758 5755 5752 5749 5746 5743 5740 5737 5735 5733 5730 5728 5726 5724 5722 5720 5718 5716
5832 5835 5837 5839 5840 5842 5843 5843 5843 5843 5844 5845 5845 5845 5846 5847 5847 5846 5846 5845 5844 5842 5841 5840 5839 5837 5836 5834 5833 5832 5830 5828 5825 5823 5822 5820 5818 5815 5813 5811 5809 5807 5805 5803 5801 5799 5797 5795 5794 5792 5791 5789 5787 5785 5782 5780 5778 5775 5773 5771 5769 5767 5764 5762 5760 5757 5754 5751 5748 5745 5742 5739 5736 5734 5731 5729 5726 5724 5722 5720 5718 5716 5714 5712 5710
5827 5830 5832 5834 5836 5837 5837 5837 5838 5839 5840 5841 5840 5841 5841 5842 5842 5841 5840 5839 5838 5837 5836 5835 5834 5832 5830 5829 5828 5827 5825 5823 5820 5818 5816 5814 5812 5810 5808 5806 5804 5802 5800 5798 5796 5794 5792 5790 5789 5787 5785 5783 5781 5778 5776 5774 5772 5770 5768 5766 5764 5761 5759 5756 5753 5750 5747 5744 5741 5738 5735 5733 5730 5728 5725 5722 5720 5718 5716 5715 5712 5710 5708 5705 5703
5820 5823 5826 5829 5830 5830 5830 5832 5833 5833 5834 5834 5834 5835 5836 5837 5837 5836 5834 5834 5833 5832 5832 5831 5828 5827 5826 5825 5824 5822 5820 5818 5816 5814 5811 5809 5807 5806 5804 5802 5800 5797 5795 5793 5791 5789 5787 5785 5784 5782 5780 5778 5775 5773 5771 5769 5766 5765 5763 5761 5758 5755 5752 5749 5746 5743 5740 5737 5734 5731 5729 5726 5724 5722 5719 5717 5715 5713 5711 5709 5707 5704 5702 5699 5697
5813 5817 5821 5823 5824 5824 5824 5826 5827 5827 5828 5828 5829 5831 5832 5832 5831 5830 5829 5829 5829 5828 5827 5826 5824 5823 5822 5821 5819 5817 5815 5813 5811 5809 5806 5804 5803 5801 5799 5797 5795 5792 5790 5788 5786 5784 5782 5781 5779 5777 5775 5773 5771 5768 5766 5764 5761 5759 5758 5755 5752 5749 5746 5743 5740 5737 5734 5731 5728 5725 5722 5720 5718 5716 5713 5712 5710 5707 5705 5703 5701 5698 5696 5694 5692
5807 5811 5814 5816 5817 5817 5818 5820 5820 5821 5823 5824 5825 5826 5827 5826 5825 5825 5825 5825 5824 5823 5822 5821 5820 5819 5818 5817 5815 5812 5810 5808 5806 5804 5801 5799 5798 5796 5793 5791 5789 5786 5784 5782 5781 5779 5777 5776 5774 5772 5770 5768 5766 5763 5761 5758 5756 5755 5752 5750 5746 5743 5741 5737 5734 5730 5727 5724 5722 5719 5716 5714 5712 5710 5708 5706 5704 5702 5700 5698 5695 5693 5690 5689 5687
5800 5804 5807 5808 5810 5812 5813 5814 5815 5817 5818 5819 5820 5821 5821 5820 5820 5821 5821 5820 5819 5818 5817 5816 5815 5814 5813 5812 5810 5808 5805 5804 5801 5798 5796 5794 5792 5790 5788 5785 5783 5781 5779 5777 5775 5774 5772 5770 5769 5767 5765 5763 5760 5758 5756 5754 5752 5750 5747 5743 5740 5737 5735 5731 5728 5724 5721 5718 5716 5713 5711 5709 5707 5705 5703 5701 5699 5697 5694 5692 5690 5688 5685 5683 5682
5793 5797 5800 5802 5804 5806 5808 5809 5811 5812 5813 5814 5815 5815 5815 5815 5816 5817 5816 5815 5814 5814 5813 5812 5811 5809 5808 5806 5804 5802 5800 5798 5795 5793 5791 5789 5787 5785 5782 5780 5778 5776 5774 5771 5769 5767 5766 5765 5763 5762 5759 5757 5755 5753 5750 5748 5745 5743 5739 5736 5734 5731 5729 5725 5722 5718 5716 5713 5711 5708 5706 5704 5702 5700 5698 5696 5693 5691 5689 5687 5685 5682 5680 5679 5677
5787 5791 5794 5797 5799 5801 5803 5804 5806 5806 5807 5808 5809 5810 5810 5810 5811 5811 5810 5809 5809 5808 5807 5807 5805 5804 5802 5800 5798 5796 5794 5792 5790 5787 5785 5783 5781 5779 5776 5774 5772 5770 5768 5766 5764 5762 5760 5759 5758 5756 5753 5751 5749 5746 5744 5741 5739 5736 5733 5731 5729 5726 5723 5720 5717 5714 5711 5709 5707 5704 5702 5700 5698 5695 5693 5690 5688 5685 5683 5682 5680 5678 5676 5675 5673
5782 5786 5789 5791 5793 5795 5797 5798 5799 5801 5802 5803 5804 5805 5805 5805 5805 5804 5804 5804 5803 5803 5802 5801 5799 5798 5796 5794 5793 5791 5788 5786 5784 5782 5779 5777 5775 5773 5771 5769 5767 5764 5762 5760 5758 5757 5755 5753 5752 5750 5747 5744 5742 5740 5738 5736 5734 5732 5729 5727 5724 5721 5718 5715 5712 5710 5707 5705 5703 5701 5698 5696 5693 5691 5688 5686 5683 5681 5679 5677 5676 5674 5672 5671 5669
5776 5779 5783 5786 5788 5790 5791 5792 5794 5795 5797 5798 5799 5799 5799 5799 5799 5799 5799 5798 5798 5796 5795 5794 5793 5791 5790 5788 5786 5785 5782 5780 5778 5776 5774 5772 5770 5768 5766 5764 5762 5759 5757 5755 5753 5752 5750 5748 5746 5743 5740 5738 5737 5737 5735 5733 5731 5728 5725 5722 5719 5716 5713 5711 5708 5705 5703 5700 5698 5696 5693 5691 5688 5686 5683 5681 5679 5677 5675 5673 5671 5670 5668 5667 5665
5770 5774 5778 5781 5783 5784 5785 5787 5789 5790 5791 5792 5793 5793 5793 5794 5794 5793 5793 5792 5792 5790 5789 5788 5786 5785 5783 5782 5780 5778 5776 5775 5772 5770 5768 5766 5764 5762 5760 5758 5756 5754 5752 5750 5748 5746 5745 5743 5740 5738 5736 5734 5733 5732 5731 5729 5726 5723 5720 5716 5713 5711 5709 5706 5704 5701 5698 5696 5693 5691 5688 5686 5683 5681 5679 5676 5674 5672 5671 5669 5667 5666 5664 5663 5661
5767 5771 5774 5775 5777 5779 5780 5782 5784 5785 5786 5787 5788 5788 5788 5788 5788 5787 5787 5786 5785 5784 5783 5782 5781 5779 5778 5776 5774 5772 5771 5769 5767 5765 5763 5761 5759 5756 5754 5752 5751 5749 5746 5744 5742 5740 5738 5737 5735 5733 5731 5730 5728 5726 5724 5721 5719 5716 5713 5711 5709 5707 5705 5702 5700 5697 5694 5692 5689 5686 5684 5681 5679 5676 5674 5672 5670 5669 5667 5665 5663 5662 5660 5659 5657
5763 5765 5767 5769 5771 5773 5775 5777 5778 5780 5781 5782 5783 5783 5783 5783 5782 5781 5780 5779 5778 5777 5776 5775 5774 5773 5772 5770 5768 5767 5765 5763 5762 5759 5757 5755 5754 5752 5750 5748 5746 5743 5741 5739 5736 5734 5733 5731 5730 5728 5726 5724 5721 5719 5717 5715 5713 5710 5708 5706 5705 5703 5700 5698 5695 5693 5690 5688 5685 5682 5680 5677 5675 5672 5670 5669 5667 5665 5663 5661 5660 5658 5657 5655 5654
5757 5759 5761 5763 5766 5768 5769 5771 5773 5774 5775 5776 5777 5777 5777 5777 5776 5774 5773 5772 5771 5770 5769 5768 5768 5766 5765 5764 5763 5761 5760 5758 5756 5754 5752 5750 5748 5747 5745 5743 5741 5739 5736 5734 5732 5730 5728 5726 5724 5723 5720 5718 5716 5714 5712 5710 5708 5706 5704 5702 5700 5699 5696 5694 5691 5689 5687 5684 5681 5679 5676 5674 5671 5670 5668 5666 5663 5661 5659 5658 5656 5655 5653 5652 5651
5752 5754 5756 5757 5760 5762 5764 5765 5766 5766 5767 5769 5771 5771 5771 5770 5768 5766 5765 5765 5764 5763 5762 5762 5761 5760 5759 5758 5757 5755 5754 5752 5751 5749 5747 5745 5743 5742 5740 5738 5736 5734 5732 5729 5727 5725 5723 5721 5719 5717 5715 5713 5711 5709 5707 5705 5703 5702 5700 5698 5696 5695 5693 5691 5688 5686 5683 5681 5678 5676 5673 5670 5668 5666 5664 5662 5660 5658 5656 5655 5653 5652 5650 5649 5648
5747 5749 5751 5752 5755 5757 5758 5758 5758 5758 5760 5763 5764 5764 5763 5762 5760 5759 5759 5759 5758 5757 5756 5756 5755 5754 5753 5752 5751 5750 5748 5747 5745 5743 5741 5740 5738 5737 5735 5733 5731 5729 5727 5725 5723 5721 5718 5716 5714 5712 5711 5709 5707 5706 5704 5702 5700 5698 5697 5696 5694 5692 5690 5688 5685 5683 5680 5678 5675 5672 5670 5668 5666 5663 5661 5659 5657 5655 5654 5652 5650 5649 5647 5646 5644
5743 5745 5747 5748 5749 5750 5751 5751 5752 5754 5755 5757 5757 5757 5756 5755 5754 5753 5753 5752 5752 5751 5751 5750 5749 5748 5747 5746 5745 5744 5743 5741 5739 5738 5736 5735 5733 5732 5730 5729 5727 5725 5723 5721 5719 5717 5715 5712 5710 5708 5706 5706 5704 5702 5701 5699 5697 5696 5694 5693 5691 5689 5687 5685 5682 5680 5677 5675 5672 5670 5667 5665 5663 5661 5659 5657 5655 5653 5651 5649 5648 5646 5644 5643 5641
5738 5740 5741 5742 5743 5744 5745 5746 5747 5749 5750 5750 5750 5749 5749 5748 5747 5746 5746 5746 5746 5745 5745 5744 5744 5743 5742 5741 5740 5738 5737 5735 5734 5732 5731 5729 5728 5726 5724 5723 5721 5720 5718 5716 5715 5713 5711 5709 5706 5704 5702 5701 5700 5699 5697 5696 5694 5693 5692 5691 5689 5687 5685 5682 5680 5677 5675 5672 5670 5667 5665 5663 5661 5658 5656 5655 5653 5651 5648 5647 5645 5643 5642 5640 5638
5733 5734 5735 5736 5737 5738 5740 5741 5742 5742 5743 5743 5743 5742 5742 5742 5741 5740 5740 5740 5741 5740 5740 5739 5738 5737 5736 5735 5733 5732 5730 5729 5728 5727 5725 5724 5722 5720 5719 5717 5716 5715 5714 5712 5710 5709 5708 5706 5704 5702 5700 5698 5697 5696 5694 5693 5692 5690 5689 5688 5686 5685 5682 5680 5678 5675 5673 5670 5668 5666 5663 5661 5658 5656 5654 5652 5650 5648 5646 5644 5642 5641 5639 5637 5635
5729 5729 5729 5729 5730 5732 5734 5734 5734 5734 5735 5736 5736 5735 5735 5735 5735 5735 5735 5735 5735 5735 5734 5733 5732 5731 5730 5728 5726 5725 5724 5723 5722 5721 5720 5718 5717 5715 5714 5712 5710 5710 5709 5707 5706 5704 5703 5702 5701 5699 5697 5696 5694 5693 5691 5690 5689 5688 5687 5685 5684 5682 5680 5678 5676 5673 5671 5668 5666 5664 5661 5659 5656 5654 5652 5650 5647 5645 5643 5641 5639 5638 5636 5634 5632
5722 5723 5723 5724 5724 5725 5726 5727 5727 5727 5727 5728 5728 5728 5728 5729 5730 5730 5730 5730 5730 5729 5727 5726 5726 5725 5723 5721 5720 5720 5719 5718 5717 5716 5715 5714 5713 5711 5709 5707 5706 5705 5704 5703 5701 5699 5698 5697 5696 5695 5694 5693 5691 5690 5689 5688 5687 5686 5684 5683 5681 5680 5678 5675 5673 5671 5669 5667 5664 5662 5659 5657 5654 5652 5650 5647 5645 5643 5640 5638 5636 5635 5633 5631 5629
5715 5716 5717 5717 5718 5717 5717 5718 5719 5719 5719 5720 5721 5721 5721 5722 5723 5724 5724 5724 5723 5722 5721 5720 5718 5718 5717 5716 5715 5715 5715 5714 5713 5712 5711 5710 5709 5707 5704 5703 5701 5701 5700 5699 5697 5695 5694 5693 5692 5691 5691 5689 5688 5687 5686 5685 5684 5683 5682 5681 5679 5677 5675 5673 5671 5669 5667 5665 5663 5660 5658 5655 5653 5650 5648 5645 5642 5640 5638 5636 5634 5632 5630 5628 5626
5709 5709 5710 5710 5709 5708 5708 5709 5710 5711 5711 5712 5714 5716 5716 5716 5716 5717 5718 5718 5718 5717 5715 5714 5712 5711 5711 5711 5710 5710 5710 5710 5709 5708 5707 5705 5704 5702 5700 5699 5697 5696 5695 5694 5693 5692 5691 5689 5689 5688 5687 5686 5685 5684 5683 5682 5682 5681 5680 5678 5677 5675 5673 5671 5669 5667 5665 5663 5661 5659 5656 5654 5651 5648 5646 5643 5640 5638 5635 5633 5631 5629 5627 5625 5623
5701 5702 5702 5703 5702 5702 5702 5702 5703 5704 5705 5707 5709 5710 5711 5711 5711 5711 5712 5712 5712 5710 5709 5708 5707 5706 5706 5706 5705 5705 5705 5705 5704 5703 5702 5701 5699 5698 5697 5696 5694 5693 5692 5690 5689 5688 5687 5686 5685 5685 5684 5682 5682 5681 5680 5680 5679 5678 5677 5676 5675 5673 5671 5669 5668 5666 5664 5661 5659 5657 5655 5652 5650 5647 5644 5641 5638 5635 5633 5631 5628 5626 5624 5622 5620
5695 5696 5697 5698 5698 5697 5697 5698 5698 5700 5701 5703 5704 5705 5706 5706 5705 5705 5706 5707 5706 5705 5703 5703 5702 5702 5701 5701 5700 5700 5700 5699 5699 5698 5697 5696 5694 5693 5693 5692 5691 5690 5689 5688 5686 5685 5683 5682 5681 5681 5680 5680 5679 5678 5678 5677 5676 5676 5675 5674 5672 5670 5669 5667 5666 5664 5662 5659 5657 5655 5653 5650 5648 5645 5642 5639 5637 5634 5631 5629 5626 5624 5622 5620 5618
5690 5691 5692 5694 5695 5694 5693 5694 5695 5696 5697 5698 5699 5700 5700 5700 5700 5699 5700 5701 5701 5699 5698 5697 5697 5697 5697 5696 5696 5695 5694 5693 5693 5692 5691 5690 5689 5689 5688 5688 5687 5685 5684 5684 5683 5681 5680 5679 5678 5678 5677 5677 5676 5676 5675 5675 5674 5673 5672 5671 5669 5668 5666 5665 5663 5661 5659 5657 5655 5653 5651 5648 5646 5643 5641 5638 5635 5632 5630 5627 5625 5623 5621 5619 5617
5685 5685 5686 5688 5691 5691 5690 5690 5691 5692 5692 5692 5694 5694 5694 5694 5694 5693 5693 5694 5695 5694 5693 5693 5692 5692 5692 5692 5691 5690 5689 5688 5687 5686 5685 5685 5684 5684 5684 5683 5682 5681 5680 5679 5678 5677 5676 5676 5675 5675 5674 5674 5673 5673 5672 5672 5671 5670 5669 5668 5667 5665 5664 5662 5661 5659 5657 5655 5653 5651 5648 5646 5644 5642 5639 5637 5634 5631 5629 5627 5625 5623 5621 5619 5617
5679 5680 5681 5682 5684 5685 5685 5685 5686 5686 5686 5687 5688 5688 5687 5687 5688 5688 5687 5688 5688 5689 5689 5688 5688 5688 5688 5687 5686 5685 5684 5683 5682 5681 5680 5680 5680 5680 5680 5679 5678 5678 5676 5675 5674 5674 5673 5672 5672 5672 5671 5671 5670 5670 5669 5669 5668 5667 5666 5665 5664 5663 5661 5660 5658 5656 5654 5652 5650 5648 5646 5644 5642 5640 5638 5635 5633 5631 5628 5626 5624 5623 5621 5619 5617
5674 5675 5676 5677 5678 5679 5679 5680 5680 5680 5680 5680 5681 5681 5681 5681 5682 5682 5682 5682 5682 5683 5683 5683 5683 5683 5683 5682 5682 5680 5679 5678 5676 5675 5675 5675 5675 5675 5676 5675 5674 5674 5673 5672 5671 5671 5670 5670 5669 5669 5668 5668 5667 5667 5666 5666 5665 5664 5663 5662 5661 5660 5658 5657 5655 5653 5652 5650 5648 5646 5644 5642 5640 5638 5636 5634 5632 5630 5627 5626 5624 5622 5620 5619 5617
5669 5670 5671 5672 5672 5673 5674 5674 5674 5674 5674 5674 5675 5675 5675 5676 5676 5676 5676 5677 5677 5677 5677 5678 5678 5678 5677 5677 5677 5676 5674 5673 5672 5671 5670 5670 5670 5670 5671 5671 5670 5670 5669 5669 5668 5667 5667 5667 5666 5666 5665 5665 5664 5664 5663 5663 5662 5661 5660 5659 5658 5657 5655 5654 5652 5651 5649 5647 5645 5643 5642 5640 5638 5636 5634 5632 5630 5628 5626 5625 5623 5621 5620 5618 5616